Location: Blackie
(50.6050°N, 113.6230°W)
Time: 11:37:42
(UTC+00:00)

ISS - Pass Details

Date: 05 December 2021
Orbit: 413 x 422 km, 51.6° (Epoch: 19 January)

Event Time Altitude Azimuth Distance (km) Brightness Sun altitude
Rises 00:36:09 0° 285° (WNW) 2,384 1.0 -9.8°
Reaches altitude 10° 00:38:16 10° 283° (WNW) 1,516 -0.1 -10.1°
Maximum altitude 00:41:39 74° 199° (SSW) 445 -3.6 -10.6°
Drops below altitude 10° 00:45:02 10° 114° (ESE) 1,506 -1.4 -11.1°
Enters shadow 00:45:13 - 114° (ESE) 1,578 -1.3 -11.1°
